Weather History for KLWC - May, 2013

Change the Weather History Date:

Thursday, May 30, 2013

  Actual Average Record
Temperature  
Mean Temperature 70 °F 69 °F  
Max Temperature 77 °F 81 °F 98 °F (1998)
Min Temperature 62 °F 58 °F 51 °F (1997)
Degree Days  
Heating Degree Days 0 1  
Month to date heating degree days 156 104  
Since 1 July heating degree days 5270 5083  
Cooling Degree Days 5 5  
Month to date cooling degree days 110 89  
Year to date cooling degree days 123 112  
Growing Degree Days 18 (Base 50)    
Moisture  
Dew Point 62 °F    
Average Humidity 79    
Maximum Humidity 93    
Minimum Humidity 64    
Precipitation  
Precipitation 0.52 in 0.18 in 1.49 in (2001)
Month to date precipitation 5.34 5.01  
Year to date precipitation 13.46 13.71  
Sea Level Pressure  
Sea Level Pressure 29.67 in    
Wind  
Wind Speed 7 mph (South)    
Max Wind Speed 20 mph    
Max Gust Speed 24 mph    
Visibility 8 miles    
Events Rain , Thunderstorm    
T = Trace of Precipitation, MM = Missing Value Source: NWS Daily Summary

Daily Weather History Graph

Daily Weather History Graph

Search for Another Location

Airport or City:

Trip Planner

Search our weather history database for the weather conditions in past years. The results will help you decide how hot, cold, wet, or windy it might be!

Date:

Astronomy

May. 30, 2013 Rise Set
Actual Time 5:57 AM CDT 8:39 PM CDT
Civil Twilight 5:26 AM CDT 9:10 PM CDT
Nautical Twilight 4:47 AM CDT 9:50 PM CDT
Astronomical Twilight 4:03 AM CDT 10:34 PM CDT
Moon 12:42 AM CDT 12:05 PM CDT
Length of Visible Light 15h 44m
Length of Day
14h 41m
Waning Gibbous, 62% of the Moon is Illuminated
May 30
Waning Gibbous
May 31
Last Quarter
Jun 8
New
Jun 16
First Quarter
Jun 23
Full

Hourly Weather History & Observations

Time (CDT) Temp. Dew Point Humidity Pressure Visibility Wind Dir Wind Speed Gust Speed Precip Events Conditions
12:52 AM 66.0 °F 60.1 °F 81% 29.68 in 10.0 mi South 16.1 mph 21.9 mph 0.00 in   Partly Cloudy
1:52 AM 64.9 °F 60.1 °F 84% 29.69 in 10.0 mi SSE 4.6 mph - 0.00 in   Mostly Cloudy
2:52 AM 64.0 °F 60.1 °F 87% 29.67 in 10.0 mi SE 11.5 mph - N/A   Scattered Clouds
3:52 AM 64.0 °F 60.1 °F 87% 29.64 in 10.0 mi SE 5.8 mph - N/A   Scattered Clouds
4:52 AM 64.0 °F 60.1 °F 87% 29.65 in 10.0 mi SE 9.2 mph - N/A   Clear
5:45 AM 64.4 °F 60.8 °F 88% 29.66 in 10.0 mi SE 13.8 mph - 0.00 in   Overcast
5:52 AM 64.9 °F 61.0 °F 87% 29.63 in 10.0 mi SE 12.7 mph - 0.00 in   Overcast
6:16 AM 64.4 °F 60.8 °F 88% 29.65 in 10.0 mi SSE 12.7 mph - N/A   Mostly Cloudy
6:47 AM 64.4 °F 60.8 °F 88% 29.67 in 10.0 mi SW 4.6 mph - N/A   Mostly Cloudy
6:52 AM 64.9 °F 61.0 °F 87% 29.65 in 10.0 mi SSW 4.6 mph - N/A   Mostly Cloudy
7:43 AM 64.4 °F 60.8 °F 88% 29.67 in 4.0 mi Calm Calm - 0.05 in Rain Light Rain
7:52 AM 64.9 °F 61.0 °F 87% 29.67 in 6.0 mi Calm Calm - 0.05 in Rain Light Rain
8:50 AM 64.4 °F 62.6 °F 94% 29.70 in 9.0 mi Calm Calm - 0.03 in Rain Light Rain
8:52 AM 64.9 °F 62.1 °F 90% 29.68 in 8.0 mi Calm Calm - 0.04 in Rain Light Rain
9:43 AM 64.4 °F 62.6 °F 94% 29.70 in 2.5 mi Calm Calm - 0.05 in Rain Rain
9:49 AM 64.4 °F 62.6 °F 94% 29.71 in 1.5 mi WSW 4.6 mph - 0.07 in Rain Rain
9:52 AM 64.0 °F 62.1 °F 93% 29.70 in 1.5 mi WSW 4.6 mph - 0.08 in Rain Light Rain
10:15 AM 64.4 °F 62.6 °F 94% 29.71 in 1.8 mi West 6.9 mph - 0.10 in Rain , Thunderstorm Light Rain
10:21 AM 62.6 °F 60.8 °F 94% 29.71 in 3.0 mi West 5.8 mph - 0.11 in Rain , Thunderstorm Light Rain
10:26 AM 62.6 °F 62.6 °F 100% 29.70 in 2.5 mi WNW 3.5 mph - 0.13 in Rain , Thunderstorm Light Rain
10:36 AM 62.6 °F 60.8 °F 94% 29.72 in 3.0 mi West 4.6 mph - 0.14 in Rain , Thunderstorm Light Rain
10:52 AM 63.0 °F 61.0 °F 93% 29.68 in 3.0 mi Calm Calm - 0.17 in Rain Light Rain
11:29 AM 62.6 °F 60.8 °F 94% 29.74 in 1.8 mi West 6.9 mph 18.4 mph 0.06 in Rain Rain
11:41 AM 62.6 °F 60.8 °F 94% 29.70 in 3.0 mi Calm Calm - 0.09 in Rain Light Rain
11:52 AM 63.0 °F 60.1 °F 90% 29.65 in 6.0 mi East 11.5 mph - 0.11 in Rain , Thunderstorm Light Rain
12:13 PM 62.6 °F 60.8 °F 94% 29.64 in 10.0 mi ESE 18.4 mph - 0.02 in Rain Light Rain
12:52 PM 63.0 °F 60.1 °F 90% 29.63 in 10.0 mi SE 3.5 mph - 0.02 in   Scattered Clouds
1:38 PM 62.6 °F 60.8 °F 94% 29.61 in 8.0 mi East 9.2 mph - 0.01 in Thunderstorm Partly Cloudy
1:52 PM 64.0 °F 61.0 °F 90% 29.60 in 10.0 mi SE 9.2 mph - 0.01 in   Clear
2:52 PM 71.1 °F 63.0 °F 75% 29.66 in 10.0 mi South 12.7 mph 23.0 mph N/A   Partly Cloudy
3:05 PM 69.8 °F 62.6 °F 78% 29.68 in 10.0 mi South 13.8 mph 23.0 mph N/A   Mostly Cloudy
3:52 PM 72.0 °F 64.0 °F 76% 29.64 in 10.0 mi SSW 12.7 mph - N/A   Scattered Clouds
4:52 PM 75.0 °F 64.0 °F 69% 29.61 in 10.0 mi SSW 13.8 mph - N/A   Clear
5:52 PM 75.9 °F 63.0 °F 64% 29.62 in 10.0 mi SSW 9.2 mph - N/A   Clear
6:52 PM 75.9 °F 62.1 °F 62% 29.64 in 10.0 mi SW 8.1 mph - N/A   Clear
7:52 PM 73.0 °F 62.1 °F 68% 29.65 in 10.0 mi SSW 3.5 mph - N/A   Clear
8:52 PM 70.0 °F 63.0 °F 78% 29.66 in 10.0 mi SE 13.8 mph - N/A   Clear
9:52 PM 70.0 °F 64.9 °F 84% 29.69 in 10.0 mi SE 8.1 mph - N/A   Scattered Clouds
10:52 PM 66.9 °F 64.0 °F 90% 29.70 in 10.0 mi ESE 6.9 mph - 0.00 in   Partly Cloudy
11:52 PM 66.9 °F 64.0 °F 90% 29.73 in 10.0 mi SSE 8.1 mph - 0.04 in   Scattered Clouds